Location: Asheville, NC
(35.6000°N, 82.5500°W)
Time: 03:48:52
(UTC-05:00)

Vanguard 1 - Pass Details

Date: 12 December 2017
Orbit: 649 x 3834 km, 34.3° (Epoch: 20 January)

Event Time Altitude Azimuth Distance (km) Brightness Sun altitude
Rises 17:16:12 0° 277° (W) 4,632 14.6 -0.6°
Reaches altitude 10° 17:21:58 10° 250° (WSW) 2,968 14.6 -1.6°
Maximum altitude 17:24:29 12° 228° (SW) 2,537 13.8 -2.1°
Drops below altitude 10° 17:26:41 10° 205° (SSW) 2,479 13.1 -2.5°
Sets 17:30:27 0° 173° (S) 3,110 12.9 -3.1°
